FW4495 Weather Reports


time (UTC)temp
F
wind
direction
speed
knots
gust
knots
rain 1hr
in
rain 24hr
in
rain mn
in
humidity
%
barometer
mb
20260505070046 63 248 1.7 9.6 0.00 0.00 0.00 62 1011.8
20260505064549 63 202 3.5 8.7 0.00 0.00 0.00 62 1011.7
20260505063044 62 231 1.7 6.1 0.00 0.00 0.00 63 1011.8
20260505061543 63 238 0.9 6.1 0.00 0.00 0.00 62 1011.8
20260505060045 63 232 0.9 7.0 0.00 0.00 0.00 61 1011.9
20260505054551 63 222 0.9 4.3 0.00 0.00 0.00 61 1011.7
20260505053041 64 239 2.6 6.1 0.00 0.00 0.00 60 1011.8
20260505051539 64 209 1.7 6.1 0.00 0.00 0.00 60 1011.8
20260505041530 62 243 1.7 6.1 0.00 0.00 0.00 65 1011.8
20260505040030 61 249 0.9 5.2 0.00 0.00 0.00 70 1011.7
20260505034525 59 227 0.9 3.5 0.00 0.00 0.00 72 1011.7
20260505033034 59 232 0.0 2.6 0.00 0.00 0.00 75 1011.7
20260505031525 60 230 0.0 1.7 0.00 0.00 0.00 76 1011.7
20260505030023 60 230 0.9 2.6 0.00 0.00 0.00 76 1011.8
20260505024534 61 230 0.9 3.5 0.00 0.00 0.00 76 1011.8
20260505023033 62 221 0.0 2.6 0.00 0.00 0.00 74 1011.7
20260505021520 62 218 0.9 2.6 0.00 0.00 0.00 71 1011.7
20260505020019 63 215 0.9 2.6 0.00 0.00 0.00 68 1011.5
20260505014531 64 219 0.0 1.7 0.00 0.00 0.00 67 1011.7
20260505013017 64 217 0.9 2.6 0.00 0.00 0.00 66 1011.5
20260505011516 64 215 0.0 1.7 0.00 0.00 0.00 68 1011.3
20260505010019 64 223 0.9 3.5 0.00 0.00 0.00 68 1011.2
20260505004518 64 181 0.0 2.6 0.00 0.00 0.00 68 1011.1
20260505003014 64 178 0.9 2.6 0.00 0.00 0.00 68 1011.0
20260505001514 65 178 0.0 2.6 0.00 0.00 0.00 67 1011.1
20260505000015 66 176 0.0 1.7 0.00 0.00 0.00 65 1010.9
20260504234512 67 176 0.0 2.6 0.00 0.00 0.00 63 1011.0
20260504233012 68 165 0.0 4.3 0.00 0.00 0.00 61 1010.8
20260504231509 68 127 0.9 2.6 0.00 0.00 0.00 59 1010.9
20260504230010 69 242 0.9 6.1 0.00 0.00 0.00 56 1010.9
20260504224508 69 155 1.7 10.4 0.00 0.00 0.00 53 1010.8
20260504223007 69 110 1.7 9.6 0.00 0.00 0.00 51 1010.9
20260504221510 70 93 4.3 8.7 0.00 0.00 0.00 48 1010.9
20260504220007 70 173 5.2 13.0 0.00 0.00 0.00 47 1010.9
20260504214505 71 162 4.3 11.3 0.00 0.00 0.00 48 1010.9
20260504213004 71 154 4.3 11.3 0.00 0.00 0.00 47 1011.0
20260504211513 71 240 3.5 11.3 0.00 0.00 0.00 48 1011.0
20260504210003 71 155 2.6 11.3 0.00 0.00 0.00 47 1011.0
20260504204501 72 146 4.3 8.7 0.00 0.00 0.00 45 1011.1
20260504203001 72 187 2.6 13.9 0.00 0.00 0.00 46 1011.0
20260504201559 73 109 3.5 11.3 0.00 0.00 0.00 44 1011.1
20260504200059 76 211 3.5 9.6 0.00 0.00 0.00 39 1011.3
20260504194555 75 162 3.5 11.3 0.00 0.00 0.00 37 1011.4
20260504193053 75 230 2.6 9.6 0.00 0.00 0.00 38 1011.8
20260504191553 75 236 2.6 5.2 0.00 0.00 0.00 40 1012.1
20260504190053 74 166 3.5 10.4 0.00 0.00 0.00 39 1012.2
20260504184545 71 107 4.3 11.3 0.00 0.00 0.00 49 1012.4
20260504183042 72 163 0.9 7.8 0.00 0.00 0.00 46 1012.6
20260504181540 72 147 4.3 13.0 0.00 0.00 0.00 44 1012.8
20260504180039 71 111 4.3 11.3 0.00 0.00 0.00 47 1013.0
20260504174538 72 192 1.7 7.8 0.00 0.00 0.00 44 1013.1
20260504173039 72 235 3.5 10.4 0.00 0.00 0.00 39 1013.4
20260504171537 72 206 1.7 4.3 0.00 0.00 0.00 42 1013.6
20260504081547 53 194 1.7 6.1 0.00 0.00 0.00 62 1016.0